Weather History for Fort Bragg, NC

Change the Weather History Date:

Monday, September 23, 2013

  Actual Average Record
Temperature  
Mean Temperature 66 °F -  
Max Temperature 76 °F 77 °F 96 °F (2010)
Min Temperature 56 °F 60 °F 48 °F (1999)
Growing Degree Days 16 (Base 50)    
Moisture  
Dew Point 56 °F    
Average Humidity 79    
Maximum Humidity 99    
Minimum Humidity 44    
Precipitation  
Precipitation 0.00 in - - ()
Sea Level Pressure  
Sea Level Pressure 30.02 in    
Wind  
Wind Speed 2 mph (NE)    
Max Wind Speed 14 mph    
Max Gust Speed -    
Visibility 10 miles    
Events      
Averages and records for this station are not official NWS values.
T = Trace of Precipitation, MM = Missing Value Source: NWS Daily Summary

Daily Weather History Graph

Daily Weather History Graph

Search for Another Location

Airport:

Trip Planner

Search our weather history database for the weather conditions in past years. The results will help you decide how hot, cold, wet, or windy it might be!

Date:

Astronomy

Sep. 23, 2013 Rise Set
Actual Time 7:04 AM EDT 7:10 PM EDT
Civil Twilight 6:39 AM EDT 7:36 PM EDT
Nautical Twilight 6:09 AM EDT 8:05 PM EDT
Astronomical Twilight 5:39 AM EDT 8:35 PM EDT
Moon 9:52 PM EDT (9/23) 11:11 AM EDT (9/23)
Length of Visible Light 12h 56m
Length of Day
12h 06m
Waning Gibbous, 81% of the Moon is Illuminated
Sep 23
Waning Gibbous
Sep 26
Last Quarter
Oct 4
New
Oct 11
First Quarter
Oct 18
Full

Hourly Weather History & Observations

Time (EDT) Temp. Dew Point Humidity Pressure Visibility Wind Dir Wind Speed Gust Speed Precip Events Conditions
12:58 AM 61.5 °F 61.3 °F 99% 29.92 in 10.0 mi Calm Calm - N/A   Clear
1:58 AM 59.7 °F 59.5 °F 99% 29.93 in 10.0 mi Calm Calm - N/A   Clear
2:58 AM 59.2 °F 59.0 °F 99% 29.93 in 10.0 mi Calm Calm - N/A   Clear
3:58 AM 58.3 °F 58.1 °F 99% 29.94 in 10.0 mi Calm Calm - N/A   Clear
4:58 AM 57.4 °F 57.2 °F 99% 29.96 in 10.0 mi Variable 3.5 mph - N/A   Partly Cloudy
5:58 AM 57.2 °F 56.8 °F 99% 29.97 in 10.0 mi North 2.3 mph - N/A   Clear
6:58 AM 56.7 °F 56.1 °F 98% 30.01 in 10.0 mi Calm Calm - N/A   Clear
7:58 AM 57.9 °F 54.9 °F 90% 30.03 in 10.0 mi Calm Calm - N/A   Clear
8:58 AM 61.3 °F 54.1 °F 77% 30.05 in 10.0 mi Calm Calm - N/A   Clear
9:55 AM 64.4 °F 53.6 °F 68% 30.05 in 10.0 mi ENE 5.8 mph - N/A   Clear
10:55 AM 69.8 °F 53.6 °F 56% 30.05 in 10.0 mi East 3.5 mph - N/A   Clear
11:55 AM 71.6 °F 53.6 °F 53% 30.07 in 10.0 mi East 5.8 mph - N/A   Clear
12:55 PM 73.4 °F 51.8 °F 47% 30.04 in 10.0 mi ENE 13.8 mph - N/A   Partly Cloudy
1:58 PM 74.3 °F 51.6 °F 45% 30.05 in 10.0 mi NE 6.9 mph - N/A   Clear
2:58 PM 75.4 °F 52.3 °F 44% 30.04 in 10.0 mi North 8.1 mph - N/A   Mostly Cloudy
3:58 PM 73.9 °F 52.9 °F 48% 30.03 in 10.0 mi Calm Calm - N/A   Scattered Clouds
4:58 PM 73.6 °F 53.2 °F 49% 30.03 in 10.0 mi Calm Calm - N/A   Mostly Cloudy
5:58 PM 71.8 °F 54.1 °F 54% 30.03 in 10.0 mi Calm Calm - N/A   Mostly Cloudy
6:58 PM 69.6 °F 54.9 °F 59% 30.04 in 10.0 mi Calm Calm - N/A   Clear
7:58 PM 64.0 °F 60.6 °F 89% 30.04 in 10.0 mi Calm Calm - N/A   Clear
8:58 PM 61.2 °F 60.3 °F 97% 30.06 in 10.0 mi Calm Calm - N/A   Clear
9:58 PM 59.9 °F 59.4 °F 98% 30.07 in 10.0 mi Calm Calm - N/A   Clear
10:58 PM 58.5 °F 58.1 °F 99% 30.09 in 10.0 mi Calm Calm - N/A   Clear
11:55 PM 56.8 °F 56.5 °F 99% 30.08 in 10.0 mi Calm Calm - N/A   Clear
11:58 PM 56.8 °F 56.5 °F 99% 30.08 in 10.0 mi Calm Calm - N/A   Clear